Content
SEND FEEDBACK

Daily
Averages
Monthly
Summary
United States of America

MAURICEVILLE, TEXAS


Home > North America > United States > Texas
Elevation: 6 meters     Latitude: 30 14N     Longitude: 093 44W

WEATHER
 
SELECT A DAY
Number of Records: 108,109;   Date Range: 8/25/05 - 7/27/14
 
SHARE

PRINT THIS DATA

[ ← Previous Day ]
WEATHER ALMANAC - 22 NOVEMBER, 2013
[ Next Day → ]
[ °F ]   °C
Weather ElementAverageHighLow
Temperature19.3 °C23.5 °C (11:55 am)12.5 °C (10:55 pm)
Dewpoint18.8 °C21.8 °C (10:55 am)12.2 °C (11:15 pm)
Humidity96.9 %100 % (8:35 pm)90 % (11:55 am)
Barometer1022 hPa1024 hPa (8:35 pm)1019.6 hPa (2:35 am)
Wind Speed11.1 km/h22.2 km/h (2:35 pm)
Wind Gust27.8 km/h (9:15 pm)
Weather ElementAverage
Visibility9.7 km
Wind DirectionSSE (158.2 °)

Weather ElementTotal
Precipitation1.78 mm
Heating Degree Days0.3 (Base 18.3)
Growing Degree Days8 (Base 10)
Averaged from 71 records on 22 November, 2013
WEATHER CONDITIONS BREAKOUT
WIND DIRECTION BREAKOUT
WEATHER BY HOUR - 22 NOVEMBER, 2013
[ °F ]   °C
Local TimeTemperatureDewpointHumidityBarometerVisibilityWind DirectionWind SpeedGust SpeedPrecipitationEventsConditions
12:35 AM20.5 °C20.2 °C98 %1020.3 hPa1.6 kmEast (100°)13 km/hOvercast
12:55 AM20.3 °C20.1 °C99 %1020 hPa2.9 kmEast (100°)13 km/hOvercast
1:15 AM20.5 °C20.2 °C98 %1020 hPa4.8 kmESE (110°)11.1 km/hOvercast
1:35 AM20.5 °C20.3 °C99 %1020 hPa4 kmESE (120°)13 km/hOvercast
1:55 AM20.6 °C20.5 °C99 %1020 hPa2.4 kmESE (110°)13 km/hOvercast
2:15 AM20.6 °C20.5 °C99 %1020 hPa2.4 kmSE (130°)16.7 km/hOvercast
2:35 AM20.6 °C20.5 °C99 %1019.6 hPa1.9 kmESE (120°)14.8 km/hOvercast
2:55 AM20.6 °C20.5 °C99 %1019.6 hPa2.9 kmESE (110°)11.1 km/hOvercast
3:15 AM20.5 °C20.3 °C99 %1019.6 hPa1.9 kmEast (100°)14.8 km/hOvercast
3:35 AM20.5 °C20.2 °C98 %1019.6 hPa4 kmESE (110°)11.1 km/hOvercast
3:55 AM20.5 °C20.3 °C99 %1019.6 hPa6.4 kmEast (90°)7.4 km/hOvercast
4:15 AM20.6 °C20.4 °C99 %1020 hPa6.4 kmESE (110°)7.4 km/hOvercast
4:35 AM20.6 °C20.5 °C99 %1020.3 hPa6.4 kmESE (110°)11.1 km/hOvercast
4:55 AM20.7 °C20.5 °C99 %1020.7 hPa8 kmEast (80°)7.4 km/hOvercast
5:15 AM20.6 °C20.5 °C99 %1021 hPa6.4 kmENE (70°)5.6 km/hOvercast
5:35 AM20.5 °C20.3 °C99 %1021 hPa4 kmESE (110°)9.3 km/hOvercast
5:55 AM20.5 °C20.2 °C98 %1021.3 hPa1.9 kmEast (100°)9.3 km/hOvercast
6:15 AM20.5 °C20.2 °C98 %1021.3 hPa2.4 kmEast (80°)7.4 km/hOvercast
6:35 AM20.3 °C20.1 °C99 %1021.7 hPa2.4 kmEast (80°)11.1 km/hOvercast
6:55 AM20.5 °C20.3 °C99 %1021.7 hPa4.8 kmEast (100°)7.4 km/hOvercast
7:15 AM20.6 °C20.5 °C99 %1021.7 hPa1.3 kmEast (80°)9.3 km/hOvercast
7:35 AM20.5 °C20.3 °C99 %1021.7 hPa0.8 kmEast (90°)14.8 km/hFogFog
7:55 AM20.6 °C20.5 °C99 %1022 hPa1.6 kmEast (80°)11.1 km/hOvercast
8:15 AM20.7 °C20.5 °C99 %1022.4 hPa3.2 kmEast (80°)11.1 km/hOvercast
8:35 AM21 °C20.7 °C98 %1022.4 hPa2.9 kmENE (70°)14.8 km/hOvercast
8:55 AM21 °C20.7 °C98 %1022.4 hPa1.3 kmEast (90°)11.1 km/hOvercast
9:15 AM21.2 °C21 °C99 %1022.7 hPa4 kmESE (110°)13 km/hOvercast
9:35 AM21.4 °C21.2 °C99 %1022.7 hPa3.2 kmEast (100°)13 km/hOvercast
9:55 AM22 °C21.5 °C97 %1022.7 hPa11.3 kmESE (110°)16.7 km/hOvercast
10:15 AM22 °C21.3 °C96 %1023 hPa11.3 kmEast (100°)13 km/hOvercast
10:35 AM22.3 °C21.5 °C95 %1023.4 hPa11.3 kmEast (90°)5.6 km/hOvercast
10:55 AM23 °C21.8 °C93 %1023 hPa11.3 kmCalmOvercast
11:15 AM23.2 °C21.7 °C91 %1023.4 hPa16.1 kmSE (130°)9.3 km/hOvercast
11:35 AM23.2 °C21.7 °C91 %1023 hPa16.1 kmESE (110°)9.3 km/hOvercast
11:55 AM23.5 °C21.7 °C90 %1023 hPa16.1 kmESE (120°)7.4 km/hOvercast
12:15 PM23.2 °C21.7 °C91 %1022.7 hPa16.1 kmSE (130°)7.4 km/hOvercast
12:35 PM23.2 °C21.7 °C91 %1022.4 hPa16.1 kmENE (70°)5.6 km/hOvercast
12:55 PM23.2 °C21.7 °C91 %1022 hPa16.1 kmESE (110°)7.4 km/hThunderstormOvercast
1:15 PM23.1 °C21.7 °C92 %1021.3 hPa16.1 kmENE (60°)7.4 km/hOvercast
1:35 PM23.1 °C21.8 °C92 %1021 hPa11.3 kmEast (80°)9.3 km/hOvercast
1:55 PM23.2 °C21.7 °C91 %1020.7 hPa11.3 kmESE (110°)14.8 km/hOvercast
2:15 PM23.1 °C21.8 °C92 %1020.7 hPa11.3 kmEast (80°)9.3 km/hOvercast
2:35 PM22.4 °C20.9 °C91 %1020.7 hPa11.3 kmENE (70°)22.2 km/hOvercast
2:55 PM21 °C20 °C94 %1021 hPa16.1 kmNE (50°)18.5 km/hRainLight Rain
3:15 PM21 °C19.7 °C92 %1021.3 hPa16.1 kmENE (70°)14.8 km/hLight Drizzle
3:35 PM20.7 °C19.5 °C93 %1021 hPa8 kmEast (90°)13 km/h0.25 mmRainHeavy Rain
3:55 PM20.5 °C19.2 °C92 %1021.7 hPa11.3 kmENE (70°)13 km/h0.51 mmRainRain
4:15 PM20 °C19.3 °C96 %1021.7 hPa11.3 kmCalm0.25 mmHeavy Drizzle
4:35 PM19.8 °C19.5 °C98 %1021.3 hPa8 kmCalm0.25 mmDrizzle
4:55 PM20 °C19.5 °C97 %1022 hPa16.1 kmNW (320°)5.6 km/h0.51 mmOvercast
5:15 PM20 °C19.4 °C96 %1022 hPa16.1 kmCalmOvercast
5:35 PM19.7 °C19.3 °C98 %1022.4 hPa16.1 kmWNW (300°)9.3 km/hOvercast
5:55 PM18.1 °C17.7 °C98 %1022.4 hPa16.1 kmWNW (300°)11.1 km/hOvercast
6:15 PM17.5 °C17.2 °C98 %1022.7 hPa16.1 kmNW (320°)9.3 km/hOvercast
6:35 PM17 °C16.6 °C97 %1022.7 hPa16.1 kmNNW (330°)9.3 km/hOvercast
6:55 PM15.9 °C15.6 °C98 %1022.7 hPa16.1 kmNNW (330°)13 km/hOvercast
7:15 PM15.1 °C14.8 °C98 %1023 hPa16.1 kmNW (320°)11.1 km/hOvercast
7:35 PM14.5 °C14.4 °C99 %1023 hPa16.1 kmNNW (340°)9.3 km/hOvercast
7:55 PM14.2 °C14 °C99 %1023.7 hPa11.3 kmNW (310°)13 km/hOvercast
8:15 PM13.7 °C13.5 °C99 %1023.7 hPa8 kmNW (320°)11.1 km/hOvercast
8:35 PM13.5 °C13.5 °C100 %1024 hPa6.4 kmNW (310°)11.1 km/hOvercast
8:55 PM13.3 °C13.2 °C99 %1024 hPa8 kmNNW (340°)14.8 km/hOvercast
9:15 PM13 °C12.9 °C99 %1024 hPa16.1 kmNNW (330°)18.5 km/h27.8 km/hOvercast
9:35 PM12.8 °C12.6 °C99 %1024 hPa11.3 kmNNW (330°)20.4 km/h25.9 km/hOvercast
9:55 PM12.7 °C12.5 °C99 %1024 hPa16.1 kmNNW (330°)18.5 km/h25.9 km/hOvercast
10:15 PM12.6 °C12.5 °C99 %1024 hPa16.1 kmNNW (340°)13 km/hOvercast
10:35 PM12.6 °C12.5 °C99 %1024 hPa16.1 kmNNW (340°)18.5 km/hOvercast
10:55 PM12.5 °C12.3 °C99 %1023.7 hPa16.1 kmNNW (330°)14.8 km/h27.8 km/hOvercast
11:15 PM12.5 °C12.2 °C98 %1023.7 hPa16.1 kmNNW (330°)13 km/hOvercast
11:35 PM12.5 °C12.2 °C98 %1023.7 hPa16.1 kmNNW (340°)14.8 km/hOvercast
11:55 PM12.5 °C12.2 °C98 %1023.7 hPa16.1 kmNNW (330°)13 km/hOvercast
Hourly data recorded from KORG, located 0 kilometers away from Mauriceville, Texas







STORIES FROM OUR PARTNERS